Flag for Switzerland Weather past 2 weeks in Sion, Valais, Switzerland

Now
56 °F

Cool.


Feels Like: 56 °F
Forecast: 62 / 78 °F
Wind: 1 mph from Northeast

Location: Sion

Current Time: May 5, 2015 at 1:10:02 AM

Latest Report: May 5, 2015 at 12:00 AM


Visibility: N/A

Pressure: 29.85 "Hg

Humidity: 94%

Dew point: 55 °F

Location of SionLocation

Historic Weather in Sion — Graph

°F

Sion temperature yesterday

Maximum temperature yesterday: 66 °F (at 5:00 PM)
Minimum temperature yesterday: 57 °F (at 6:00 AM)
Average temperature yesterday: 61 °F

Past Weeks' High & Low Weather Summary

 TemperatureHumidityPressure
High78 °F (Apr 22, 5:00 PM)96% (May 3, 11:00 PM)30.34 "Hg (May 3, 11:00 PM)
Low38 °F (Apr 29, 7:00 AM)19% (Apr 23, 6:00 PM)29.38 "Hg (Apr 27, 3:00 PM)
Average57 °F64%29.95 "Hg
* Reported Apr 19 11:00 PM — May 4 11:00 PM, Sion, Weather by CustomWeather, © 2015

Note: Actual official high and low records may vary slightly from our data, if they occured in-between our weather recording intervals... More about our weather records

Advertising

Sion weather history for previous 24 hours

 ConditionsComfort  
Time TempWeatherWind HumidityBarometerVisibility
11:00 PM
Mon, May 4
57 °FPassing clouds.2 mph94%29.85 "Hg9 mi
10:00 PM61 °FCool.3 mph90%29.85 "HgN/A
9:00 PM62 °FCool.2 mph92%29.86 "HgN/A
8:00 PM64 °FMild.2 mph88%29.82 "HgN/A
7:00 PM66 °FMild.5 mph78%29.82 "HgN/A
6:00 PM66 °FMild.3 mph72%29.84 "HgN/A
5:00 PM66 °FOvercast.3 mph70%29.85 "Hg9 mi
4:00 PM65 °FMild.3 mph72%29.87 "HgN/A
3:00 PM66 °FMild.3 mph75%29.87 "HgN/A
2:00 PM63 °FLow clouds.6 mph84%29.90 "Hg9 mi
1:00 PM61 °FCool.5 mph88%29.93 "HgN/A
12:00 PM60 °FCool.1 mph88%29.93 "HgN/A
11:00 AM59 °FCool.No wind90%29.93 "HgN/A
10:00 AM59 °FCool.2 mph92%29.92 "HgN/A
9:00 AM59 °FCool.2 mph92%29.93 "HgN/A
8:00 AM58 °FLight rain. Low clouds.1 mph94%29.92 "Hg9 mi
7:00 AM58 °FCool.2 mph95%29.91 "HgN/A
6:00 AM57 °FCool.2 mph95%29.91 "HgN/A
5:00 AM58 °FRain. Overcast.1 mph95%29.90 "Hg9 mi
4:00 AM58 °FCool.3 mph95%29.90 "HgN/A
3:00 AM58 °FCool.No wind96%29.91 "HgN/A
2:00 AM58 °FRain. Overcast.2 mph94%29.92 "Hg9 mi
1:00 AM58 °FCool.2 mph95%29.92 "HgN/A
Weather by CustomWeather, © 2015

See weather overviewHow to use our weather pages